Miscellaneous Local Product
Issued by NWS Hastings, NE

Home | Current Version | Previous Version | Graphics & Text | Print | Product List | Glossary On
Versions: 1 2 3 4 5 6 7 8 9 10 11 12 13 14 15 16 17 18 19 20 21 22 23 24 25 26 27 28 29 30 31 32 33 34 35 36 37 38 39 40 41 42 43 44 45 46 47 48 49 50
000
AXUS43 KGID 262102
MISGRI

GID CWA HOURLY WEATHER ROUNDUP
NATIONAL WEATHER SERVICE HASTINGS NE
400 PM CDT SUN MAR 26 2017

NOTE: "FAIR" INDICATES FEW OR NO CLOUDS BELOW 12,000 FEET WITH NO
SIGNIFICANT WEATHER AND/OR OBSTRUCTIONS TO VISIBILITY.

...SOUTH CENTRAL NEBRASKA...

CITY           SKY/WX    TMP DP  RH WIND       PRES   REMARKS
GRAND ISLAND   CLOUDY    50  44  80 NE7       29.89F
HASTINGS       CLOUDY    50  43  77 NE7       29.89F
KEARNEY        CLOUDY    48  39  71 CALM      29.89F
ORD            CLOUDY    53  42  66 CALM      29.88F
YORK           CLOUDY    46  45  93 NE6       29.90F
AURORA         CLOUDY    48  45  87 NE7       29.89F
LEXINGTON      MOSUNNY   53  42  67 NE3       29.86F
HOLDREGE       CLOUDY    48  40  75 CALM      29.87S
HEBRON         CLOUDY    49  43  79 NE6       29.88F

...NEBRASKA PANHANDLE...

CITY           SKY/WX    TMP DP  RH WIND       PRES   REMARKS
CHADRON        CLOUDY    50  39  66 NE7       29.93S
ALLIANCE       CLOUDY    56  34  43 NE7       29.87F
SCOTTSBLUFF    CLOUDY    53  37  54 NW14      29.91R
SIDNEY         CLOUDY    51  36  56 VRB5      29.89F

...WESTERN AND NORTH CENTRAL NEBRASKA...

CITY           SKY/WX    TMP DP  RH WIND       PRES   REMARKS
VALENTINE      CLOUDY    52  36  54 NE9       29.88F
AINSWORTH      MOSUNNY   52  43  71 E6        29.88S
ONEILL         CLOUDY    45  44  97 N3        29.91S
BROKEN BOW     SUNNY     58  41  53 N7        29.85F
IMPERIAL       CLOUDY    58  41  53 N6        29.85F
NORTH PLATTE   CLOUDY    59  42  53 VRB3      29.85F
MCCOOK         MOSUNNY   52  42  69 SE6       29.86F

...EASTERN NEBRASKA...

CITY           SKY/WX    TMP DP  RH WIND       PRES   REMARKS
NORFOLK        CLOUDY    47  40  76 N6        29.90S
SO SIOUX CITY  CLOUDY    47  40  76 NW8       29.91F
TEKAMAH        CLOUDY    48  41  76 NW7       29.91S
COLUMBUS       CLOUDY    46  41  81 N6        29.91F
ALBION         CLOUDY    49  42  78 NW6       29.90S
OMAHA EPPLEY   CLOUDY    49  41  74 N9        29.90F
OFFUTT AFB     CLOUDY    48  40  73 VRB7      29.90S
MILLARD        CLOUDY    50  43  76 NW7       29.91S
LINCOLN        CLOUDY    48  41  76 N3        29.92F
NEBRASKA CITY  CLOUDY    46  41  82 CALM      29.90F
BEATRICE       CLOUDY    48  44  85 N6        29.89F
FALLS CITY     CLOUDY    48  42  80 N7        29.90F

...NORTHERN KANSAS...

CITY           SKY/WX    TMP DP  RH WIND       PRES   REMARKS
GOODLAND       LGT RAIN  45  43  93 NE12      29.85F
HILL CITY      LGT RAIN  46  43  89 NE9       29.86F FOG
NORTON         MOCLDY    48  37  66 N7        29.86S
PHILLIPSBURG   CLOUDY    52  43  71 NE8       29.86S
HAYS           LGT RAIN  46  44  93 NE14      29.83R
RUSSELL        TSTM      47  41  80 NE16      29.81F
CONCORDIA      CLOUDY    50  44  80 NE8       29.86F
SALINA         CLOUDY    53  44  71 NE15      29.82F
TOPEKA         CLOUDY    53  46  77 VRB3      29.89F



USA.gov is the U.S. government's official web portal to all federal, state and local government web resources and services.